Flag for Canada Weather past 2 weeks in Inuvik, Northwest Territories, Canada

Now
39 °F

Sunny.


Feels Like: 39 °F
Forecast: 38 / 58 °F
Wind: No wind

Location: Inuvik

Current Time: May 29, 2015 at 5:23:32 AM

Latest Report: May 29, 2015 at 5:00 AM


Visibility: 15 mi

Pressure: 30.20 "Hg

Humidity: 93%

Dew point: 37 °F

Location of InuvikLocation

Historic Weather in Inuvik — Graph

°F

Inuvik temperature yesterday

Maximum temperature yesterday: 66 °F (at 4:00 PM)
Minimum temperature yesterday: 46 °F (at 5:00 AM)
Average temperature yesterday: 58 °F

Past Weeks' High & Low Weather Summary

 TemperatureHumidityPressure
High81 °F (May 18, 5:00 PM)100% (May 14, 6:54 AM)30.37 "Hg (May 14, 6:54 AM)
Low25 °F (May 15, 4:00 AM)19% (May 25, 6:00 PM)29.87 "Hg (May 14, 4:00 AM)
Average53 °F50%30.11 "Hg
* Reported May 14 4:00 AM — May 29 4:00 AM, Inuvik, Weather by CustomWeather, © 2015

Note: Actual official high and low records may vary slightly from our data, if they occured in-between our weather recording intervals... More about our weather records

Advertising

Inuvik weather history for previous 24 hours

 ConditionsComfort  
Time TempWeatherWind HumidityBarometerVisibility
4:00 AM
Fri, May 29
43 °FSunny.2 mph87%30.20 "Hg15 mi
3:00 AM45 °FSunny.3 mph81%30.19 "Hg15 mi
2:00 AM48 °FSunny.2 mph76%30.20 "Hg15 mi
1:00 AM54 °FSunny.2 mph72%30.19 "Hg15 mi
12:00 AM57 °FSunny.5 mph63%30.19 "Hg15 mi
11:00 PM
Thu, May 28
61 °FSunny.6 mph52%30.19 "Hg15 mi
10:00 PM63 °FSunny.7 mph56%30.20 "Hg15 mi
9:00 PM64 °FSunny.8 mph52%30.20 "Hg15 mi
8:00 PM66 °FSunny.7 mph46%30.21 "Hg15 mi
7:00 PM66 °FPassing clouds.7 mph40%30.22 "Hg15 mi
6:00 PM66 °FPassing clouds.6 mph35%30.23 "Hg15 mi
5:00 PM66 °FSunny.7 mph28%30.24 "Hg15 mi
4:00 PM66 °FSunny.8 mph26%30.25 "Hg15 mi
3:00 PM64 °FPassing clouds.8 mph28%30.26 "Hg15 mi
2:00 PM64 °FPassing clouds.6 mph26%30.27 "Hg15 mi
1:00 PM61 °FPassing clouds.6 mph31%30.27 "Hg15 mi
12:00 PM59 °FPassing clouds.8 mph36%30.28 "Hg15 mi
11:00 AM57 °FPassing clouds.9 mph39%30.29 "Hg15 mi
10:00 AM54 °FPassing clouds.9 mph41%30.29 "Hg15 mi
9:00 AM54 °FPassing clouds.12 mph41%30.30 "Hg15 mi
8:00 AM50 °FPassing clouds.9 mph43%30.31 "Hg15 mi
7:00 AM48 °FPassing clouds.7 mph46%30.31 "Hg15 mi
6:00 AM46 °FSunny.7 mph50%30.31 "Hg15 mi
5:00 AM46 °FSunny.9 mph46%30.32 "Hg15 mi
Weather by CustomWeather, © 2015

See weather overviewHow to use our weather pages